This is the latest recevied weather packets stored in our database for station/object DO1BDB-12. If no packets are shown the sender has not sent any weather packets the latest 10 day(s).
| Time | Temp. | Humidity | Pressure | Rain* | Wind** | Luminosity | Snow |
|---|---|---|---|---|---|---|---|
| 1787919813 | 31.67° C | 39% | 100.7 hPa | - | - | - | - |
| 1787919747 | 31.67° C | 37% | 100.7 hPa | - | - | - | - |
| 1787919681 | 31.67° C | 39% | 100.7 hPa | - | - | - | - |
| 1787919617 | 31.11° C | 38% | 100.7 hPa | - | - | - | - |
| 1787919549 | 30.56° C | 38% | 100.7 hPa | - | - | - | - |
| 1787919484 | 31.11° C | 39% | 100.7 hPa | - | - | - | - |
| 1787919418 | 30.56° C | 39% | 100.7 hPa | - | - | - | - |
| 1787919352 | 29.44° C | 40% | 100.7 hPa | - | - | - | - |
| 1787919286 | 30° C | 39% | 100.7 hPa | - | - | - | - |
| 1787919221 | 30° C | 39% | 100.7 hPa | - | - | - | - |
| 1787919154 | 30.56° C | 39% | 100.7 hPa | - | - | - | - |
| 1787919088 | 29.44° C | 39% | 100.7 hPa | - | - | - | - |
| 1787919023 | 30.56° C | 39% | 100.7 hPa | - | - | - | - |
| 1787918957 | 29.44° C | 40% | 100.7 hPa | - | - | - | - |
| 1787918891 | 30.56° C | 38% | 100.7 hPa | - | - | - | - |
| 1787918825 | 30.56° C | 39% | 100.7 hPa | - | - | - | - |
| 1787918759 | 30° C | 39% | 100.7 hPa | - | - | - | - |
| 1787918693 | 32.22° C | 36% | 100.7 hPa | - | - | - | - |
| 1787918628 | 31.67° C | 38% | 100.7 hPa | - | - | - | - |
| 1787918562 | 31.67° C | 37% | 100.7 hPa | - | - | - | - |
| 1787918496 | 31.67° C | 38% | 100.7 hPa | - | - | - | - |
| 1787918430 | 31.67° C | 37% | 100.7 hPa | - | - | - | - |
| 1787918364 | 31.11° C | 38% | 100.7 hPa | - | - | - | - |
| 1787918298 | 30° C | 39% | 100.7 hPa | - | - | - | - |
| 1787918233 | 30° C | 40% | 100.7 hPa | - | - | - | - |
* Rain since midnight (hover to see other rain measurements)
** Current wind speed in m/s (hover to see current wind gust speed)